Santa Barbara, CA

6:21 AM PDT on June 18, 2018 (GMT -0700)
Santa Barbara Municipal

Weather History for KSBA - August, 2005

Change the Weather History Date:

Tuesday, August 16, 2005

  Actual Average Record
Temperature  
Mean Temperature 64 °F 66 °F  
Max Temperature 74 °F 74 °F 84 °F (1962)
Min Temperature 54 °F 58 °F 50 °F (1986)
Degree Days  
Heating Degree Days 1 1  
Month to date heating degree days 8 16  
Since 1 June heating degree days 133  
Since 1 July heating degree days 51 43  
Cooling Degree Days 0 2  
Month to date cooling degree days 12 32  
Year to date cooling degree days 64 104  
Since 1 June cooling degree days 90  
Growing Degree Days 15 (Base 50)    
Moisture  
Dew Point 56 °F    
Average Humidity 77    
Maximum Humidity 93    
Minimum Humidity 61    
Precipitation  
Precipitation 0.00 in 0.00 in 0.00 in (2018)
Month to date precipitation 0.00 0.05  
Year to date precipitation 21.41 12.13  
Since 1 July precipitation T  
Sea Level Pressure  
Sea Level Pressure 29.98 in    
Wind  
Wind Speed 5 mph (WSW)    
Max Wind Speed 13 mph    
Max Gust Speed 15 mph    
Visibility 9 miles    
Events      
T = Trace of Precipitation, MM = Missing Value Source: NWS Daily Summary

Daily Weather History Graph

Daily Weather History Graph

Search for Another Location

Airport or City:

Astronomy

Aug. 16, 2005 Rise Set
Actual Time 6:21 AM PDT 7:45 PM PDT
Civil Twilight 5:54 AM PDT 8:11 PM PDT
Nautical Twilight 5:22 AM PDT 8:43 PM PDT
Astronomical Twilight 4:49 AM PDT 9:16 PM PDT
Moon 5:53 PM PDT (8/16) 2:20 AM PDT (8/16)
Length of Visible Light 14h 17m
Length of Day
13h 24m
Waxing Gibbous, 87% of the Moon is Illuminated
Aug 16
Waxing Gibbous
Aug 19
Full
Aug 26
Last Quarter
Sep 3
New
Sep 11
First Quarter

Hourly Weather History & Observations

Time (PDT) Temp. Dew Point Humidity Pressure Visibility Wind Dir Wind Speed Gust Speed Precip Events Conditions
12:53 AM 60.1 °F 57.9 °F 93% 29.97 in 7.0 mi NE 3.5 mph - N/A   Clear
1:53 AM 60.1 °F 55.9 °F 86% 29.97 in 9.0 mi NNE 4.6 mph - N/A   Clear
2:53 AM 59.0 °F 55.9 °F 90% 29.96 in 8.0 mi NNE 4.6 mph - N/A   Clear
3:53 AM 57.9 °F 55.0 °F 90% 29.97 in 8.0 mi Calm Calm - N/A   Clear
4:53 AM 57.0 °F 55.0 °F 93% 29.98 in 7.0 mi NE 4.6 mph - N/A   Clear
5:09 AM 57.2 °F 55.4 °F 94% 29.98 in 7.0 mi NNE 3.5 mph - N/A   Scattered Clouds
5:17 AM 57.2 °F 55.4 °F 94% 29.98 in 8.0 mi Calm Calm - N/A   Mostly Cloudy
5:21 AM 57.2 °F 55.4 °F 94% 29.98 in 4.0 mi Calm Calm - N/A   Mostly Cloudy
5:53 AM 57.9 °F 55.0 °F 90% 29.98 in 4.0 mi Calm Calm - N/A   Overcast
6:00 AM 57.2 °F 55.4 °F 94% 29.98 in 8.0 mi Calm Calm - N/A   Overcast
6:27 AM 57.2 °F 53.6 °F 88% 29.98 in 7.0 mi Calm Calm - N/A   Overcast
6:34 AM 57.2 °F 53.6 °F 88% 29.99 in 6.0 mi Calm Calm - N/A   Overcast
6:53 AM 59.0 °F 55.0 °F 87% 29.99 in 6.0 mi Calm Calm - N/A   Overcast
7:53 AM 62.1 °F 57.9 °F 86% 30.00 in 6.0 mi SSW 4.6 mph - N/A   Overcast
8:00 AM 62.6 °F 59.0 °F 88% 30.00 in 8.0 mi SW 3.5 mph - N/A   Overcast
8:27 AM 62.6 °F 59.0 °F 88% 30.01 in 10.0 mi SW 6.9 mph - N/A   Overcast
8:53 AM 63.0 °F 57.9 °F 84% 30.01 in 10.0 mi SW 8.1 mph - N/A   Overcast
9:53 AM 64.0 °F 57.9 °F 80% 30.02 in 10.0 mi WSW 8.1 mph - N/A   Overcast
10:53 AM 64.9 °F 57.0 °F 75% 30.02 in 10.0 mi Variable 3.5 mph - N/A   Overcast
11:43 AM 64.4 °F 57.2 °F 77% 30.01 in 10.0 mi Calm Calm - N/A   Overcast
11:53 AM 66.0 °F 57.9 °F 75% 30.01 in 10.0 mi WSW 3.5 mph - N/A   Overcast
12:53 PM 66.9 °F 57.0 °F 70% 30.00 in 10.0 mi SW 4.6 mph - N/A   Overcast
1:53 PM 71.1 °F 57.9 °F 63% 29.99 in 10.0 mi Variable 5.8 mph - N/A   Mostly Cloudy
2:53 PM 72.0 °F 57.9 °F 61% 29.98 in 10.0 mi Variable 5.8 mph - N/A   Mostly Cloudy
3:00 PM 73.4 °F 57.2 °F 57% 29.98 in 10.0 mi South 8.1 mph - N/A   Clear
3:53 PM 72.0 °F 57.0 °F 59% 29.96 in 10.0 mi SW 9.2 mph - N/A   Partly Cloudy
4:53 PM 70.0 °F 57.9 °F 65% 29.95 in 10.0 mi West 11.5 mph - N/A   Partly Cloudy
5:53 PM 69.1 °F 57.0 °F 65% 29.94 in 10.0 mi West 11.5 mph - N/A   Clear
6:53 PM 66.0 °F 57.9 °F 75% 29.94 in 10.0 mi West 10.4 mph - N/A   Clear
7:53 PM 62.1 °F 57.0 °F 84% 29.94 in 9.0 mi West 5.8 mph - N/A   Clear
8:53 PM 60.1 °F 57.0 °F 90% 29.94 in 9.0 mi WSW 4.6 mph - N/A   Clear
9:53 PM 59.0 °F 55.0 °F 87% 29.96 in 10.0 mi Calm Calm - N/A   Clear
10:53 PM 57.9 °F 53.1 °F 84% 29.95 in 10.0 mi NE 3.5 mph - N/A   Clear
11:53 PM 55.9 °F 52.0 °F 87% 29.95 in 10.0 mi NE 3.5 mph - N/A   Clear